GEFSMA_con_probscp_366.txt.gz
Probability
0 0 0 0 1 1 0 0 0 0 0 0 0 0 0 0 0 0 1 2 4 4 3 3 3 3 4 4 4 5 6 6 5 4 2 1 0 1 2 3 4 5 5
0 0 0 0 1 1 0 0 0 0 0 0 0 0 0 0 0 0 0 2 4 5 5 4 4 3 4 5 4 4 5 6 6 5 4 2 1 1 2 3 3 3 3
0 0 0 0 1 1 0 0 0 0 0 0 0 0 0 0 0 0 0 1 3 6 7 6 6 5 5 6 5 4 5 6 6 6 6 4 3 3 2 1 1 1 1
0 0 0 0 0 0 0 0 0 0 0 0 0 0 0 0 0 0 0 1 3 5 5 5 6 6 6 7 8 7 7 7 7 7 6 6 6 4 2 1 0 0 0
0 0 0 0 0 0 0 0 0 1 1 0 0 0 0 0 0 0 0 1 3 3 2 2 3 3 4 6 8 8 7 7 7 7 7 8 7 5 3 1 0 0 0
1 1 1 1 1 1 0 0 1 2 2 1 1 0 0 1 1 1 1 1 1 1 1 1 3 3 2 3 4 5 5 6 6 6 6 7 7 7 6 3 1 0 0
2 2 2 2 2 2 1 1 1 3 3 3 2 1 2 3 4 4 3 1 0 0 1 3 5 6 3 1 1 2 3 4 4 4 4 5 6 7 7 5 3 2 1
2 2 3 3 4 4 3 3 3 3 3 3 3 3 4 6 7 6 3 1 0 0 1 2 4 5 3 1 0 0 1 2 2 2 3 4 5 5 6 6 6 4 3
2 3 3 4 5 5 5 5 5 4 4 4 4 5 6 7 7 6 3 1 0 0 0 1 1 1 1 2 2 1 0 0 0 1 2 4 6 7 6 7 7 6 4
4 4 5 6 8 8 7 6 6 7 7 7 7 7 7 7 7 6 5 3 1 0 0 0 0 0 1 3 4 2 0 0 0 1 2 4 7 8 8 7 7 6 4
6 6 8 10 12 12 10 8 8 10 10 8 8 9 9 8 7 6 5 3 2 1 0 1 1 1 3 5 5 2 0 0 0 0 2 3 5 6 8 9 9 7 6
10 11 13 14 15 14 12 10 10 11 10 9 8 9 9 9 8 7 6 4 4 2 2 3 3 4 5 6 4 2 1 0 0 0 0 1 2 3 5 8 10 10 9
14 16 17 17 17 15 13 12 12 11 10 10 9 9 9 8 9 9 8 6 5 4 4 5 6 7 8 8 5 2 1 0 0 0 0 0 0 1 3 4 7 9 10
16 18 19 19 18 16 14 14 14 13 12 11 10 9 9 9 10 11 10 7 5 4 4 5 7 10 12 11 6 2 0 0 0 0 0 0 0 0 1 2 3 4 5
16 18 19 19 19 16 15 16 17 16 14 12 11 10 10 10 11 11 10 8 6 4 3 4 7 11 14 12 6 2 1 0 0 0 0 0 0 0 0 1 1 1 1
16 17 18 19 19 18 17 17 18 18 16 13 11 10 10 10 11 11 10 9 8 6 4 4 8 13 14 11 6 4 4 2 1 1 1 1 0 0 0 0 0 0 0
16 17 18 19 19 20 19 19 18 17 15 12 11 10 10 10 10 10 10 11 10 8 6 6 9 12 14 12 10 9 7 4 2 2 2 2 1 0 0 0 0 0 0
17 18 18 17 17 19 19 18 16 15 14 11 9 8 9 11 12 12 12 11 11 9 9 9 10 12 12 11 11 9 7 6 5 4 3 3 2 1 0 0 0 0 0
19 19 18 17 16 16 16 15 13 13 11 9 7 7 8 11 13 13 13 12 11 10 10 10 11 10 8 7 8 6 5 6 6 4 4 4 3 1 0 0 0 0 0
19 19 18 17 16 14 13 12 11 10 7 5 4 4 5 7 10 11 11 10 10 10 9 9 9 7 5 5 6 5 5 6 5 4 5 6 4 3 2 1 0 0 0
18 18 17 16 14 12 9 9 8 7 5 4 3 2 3 3 4 5 6 7 8 8 8 6 5 4 4 5 6 6 5 5 7 7 8 8 6 6 5 4 2 1 0
16 17 16 14 12 9 7 6 5 5 5 4 4 3 2 1 1 1 1 2 4 4 4 3 2 3 3 4 6 6 6 7 9 10 10 8 7 8 8 7 4 2 1
14 15 15 12 10 8 5 3 3 4 5 6 5 4 2 1 0 0 1 1 2 2 2 2 3 4 5 6 7 7 8 10 12 13 11 9 8 8 8 6 5 3 1
14 14 14 13 11 8 4 1 1 3 4 5 5 4 3 2 1 0 1 2 2 2 2 2 4 6 6 7 8 9 10 11 14 14 12 9 8 7 6 6 4 2 1
15 15 15 13 11 9 4 1 1 2 4 5 5 4 3 3 1 0 1 1 2 2 2 2 3 5 5 5 6 8 11 13 14 15 13 11 9 7 6 7 6 3 2
15 15 15 13 10 8 4 1 1 2 4 5 4 4 3 3 2 1 0 0 1 1 2 3 3 3 3 3 3 6 11 13 14 15 14 13 10 6 6 8 7 5 4

GEFSMA_con_probscp_372.txt.gz
Probability
2 2 2 2 1 0 1 2 2 1 1 0 0 0 0 0 1 2 3 6 12 14 11 7 4 3 3 3 4 5 7 7 6 5 4 3 4 4 3 3 3 3 3
2 3 4 5 4 3 5 6 5 3 2 1 0 0 0 1 2 3 3 6 10 12 10 8 6 5 5 5 6 7 8 7 6 6 5 5 4 4 3 3 3 3 3
5 6 8 8 6 7 12 12 9 6 3 2 2 2 2 2 3 3 3 4 5 7 9 10 10 8 8 8 9 9 9 9 8 8 7 6 5 4 3 3 3 3 3
6 9 12 11 9 10 14 14 11 7 5 5 4 3 3 3 3 3 3 4 4 5 8 11 12 10 9 9 9 9 9 10 10 10 8 6 5 4 3 3 3 3 3
6 9 13 15 13 12 14 13 10 8 7 7 5 4 4 5 5 4 4 5 5 5 6 9 10 10 8 8 8 9 9 9 9 9 8 7 5 5 4 2 1 1 2
8 10 14 16 15 13 13 12 9 8 8 8 6 4 5 6 8 8 7 6 5 3 4 8 10 9 7 6 8 9 8 8 7 7 8 7 6 6 5 3 1 1 1
12 12 14 16 15 13 12 11 10 9 8 7 6 5 5 6 7 9 10 9 7 4 4 9 13 12 8 6 7 7 7 6 5 6 8 8 7 7 6 4 4 2 1
16 16 17 18 17 14 11 10 10 9 7 6 6 6 6 5 5 7 10 10 9 6 6 9 14 15 12 8 7 6 7 6 6 6 7 7 7 8 7 7 7 5 4
18 20 23 23 20 15 12 12 12 11 9 8 7 7 7 6 5 6 8 10 10 10 8 9 12 16 18 17 12 9 8 8 8 8 8 8 9 9 10 10 10 8 7
22 24 27 27 23 17 14 13 14 13 11 10 10 9 8 8 8 7 8 9 10 11 10 8 10 16 21 21 18 13 9 9 9 10 9 9 10 10 10 11 11 10 9
24 24 26 26 23 19 16 15 15 16 14 12 11 11 11 11 10 7 7 8 9 10 9 10 12 16 18 18 16 14 11 8 8 8 8 7 8 8 9 9 10 10 11
27 25 23 22 22 20 17 14 16 17 16 13 11 11 11 11 10 8 6 6 8 8 9 11 13 15 16 15 13 11 9 8 6 5 4 4 4 5 7 7 8 10 10
29 26 22 21 21 19 16 15 17 19 18 14 11 9 10 11 11 9 8 7 8 9 9 9 11 12 14 16 13 9 8 7 5 3 1 2 2 3 4 6 7 8 8
27 25 23 23 22 19 17 18 19 19 19 16 12 11 11 11 10 10 10 10 9 9 8 8 8 10 12 14 12 10 9 6 3 1 0 0 1 1 2 3 4 5 5
24 24 24 24 24 22 22 22 21 19 19 18 16 14 13 10 9 10 11 12 10 8 8 8 9 11 11 11 11 12 11 6 2 0 0 0 0 0 0 1 1 2 2
23 24 24 25 26 25 25 23 20 18 18 19 17 16 14 10 8 8 10 11 11 10 9 9 11 12 12 11 11 13 12 7 2 1 1 1 0 0 0 0 0 0 0
22 23 24 25 26 25 25 22 17 15 16 16 15 15 13 11 9 9 9 10 10 11 10 10 11 13 13 12 11 11 11 7 5 3 2 2 1 0 0 0 0 0 0
21 22 23 24 23 22 21 19 17 15 15 13 12 13 12 11 11 9 8 8 10 11 11 11 11 13 14 13 12 10 9 8 6 4 3 2 1 0 0 0 0 0 0
18 20 22 22 21 19 17 17 17 17 15 13 12 12 11 11 10 8 6 8 10 11 13 13 12 12 13 13 11 9 8 7 6 4 3 2 1 0 0 0 0 0 0
17 19 21 21 19 17 15 14 15 15 14 13 11 10 9 9 8 5 5 7 9 11 13 12 10 8 9 10 9 7 7 6 4 3 3 2 1 1 1 0 0 0 0
17 19 21 20 17 14 13 13 13 14 13 11 10 9 8 8 6 3 2 3 5 8 10 9 7 5 6 7 7 6 6 5 4 5 6 5 3 3 2 1 1 0 0
19 20 21 20 17 13 11 11 12 13 12 10 10 9 8 6 5 2 1 1 2 3 5 6 6 6 7 8 8 7 6 6 6 7 8 7 5 4 4 3 2 1 0
21 21 21 21 18 13 9 8 9 10 11 11 10 9 8 6 4 3 2 1 1 1 2 3 5 7 8 9 9 8 7 6 6 7 7 7 6 6 5 3 2 1 0
22 22 24 25 21 14 9 7 6 8 10 10 9 8 8 8 5 4 4 3 2 2 2 1 2 4 5 6 7 7 7 6 5 5 7 7 7 7 5 3 2 1 0
23 24 26 27 25 17 9 5 5 8 9 10 9 8 8 8 5 4 4 4 4 3 3 1 1 2 2 3 3 4 5 5 4 4 7 8 8 7 6 4 3 2 1
24 24 26 28 27 19 9 4 5 8 10 10 9 9 8 7 5 4 4 5 5 4 3 2 2 2 2 2 2 2 4 4 4 4 7 8 8 7 6 5 5 3 3

GEFSMA_con_probscp_378.txt.gz
Probability
0 0 0 0 0 0 0 0 0 0 0 0 0 0 0 0 0 0 1 4 8 9 8 6 5 4 3 2 3 6 8 8 7 6 4 4 4 3 1 0 0 0 0
0 0 0 0 0 0 0 0 0 0 0 0 0 0 0 0 0 0 1 3 6 8 8 9 8 7 4 2 2 4 6 7 6 5 4 4 4 4 3 1 0 0 0
0 0 0 0 0 0 0 0 0 0 0 0 0 0 0 0 0 0 0 1 3 5 7 11 12 10 7 4 3 3 3 4 4 4 4 4 4 5 5 4 2 1 1
0 0 0 1 1 1 1 0 1 1 1 0 0 0 0 0 0 0 0 0 0 1 4 8 11 11 10 8 7 5 3 4 4 3 3 4 4 5 6 5 4 3 2
1 2 2 2 2 2 2 1 1 2 1 0 0 0 0 0 0 0 0 0 0 0 1 5 7 9 10 11 11 9 7 6 6 4 4 4 4 3 3 4 4 3 2
2 4 4 3 3 3 3 3 3 3 2 1 1 0 0 0 0 1 1 0 0 0 0 2 3 4 7 11 12 12 10 9 7 5 5 4 3 2 1 1 2 1 1
2 4 4 3 3 3 4 4 4 4 3 2 1 0 0 0 0 1 1 0 0 0 0 0 0 1 3 6 9 11 11 10 7 6 4 3 2 1 0 0 0 0 0
2 3 3 2 3 4 5 5 5 5 5 3 1 0 0 0 0 0 0 0 0 0 0 0 0 1 1 2 4 8 10 9 8 7 5 3 2 1 0 0 0 0 0
3 3 3 3 5 5 6 6 6 6 6 4 1 0 0 0 0 0 0 0 0 0 0 0 1 2 2 2 3 5 7 8 7 8 7 4 2 1 0 1 1 1 0
4 3 2 3 5 6 6 6 6 6 5 3 1 0 1 1 1 1 0 0 0 0 0 0 1 2 3 3 3 3 4 5 7 7 7 7 5 4 3 3 3 2 1
4 4 3 3 4 3 4 5 6 5 5 3 1 0 0 1 1 2 1 0 0 0 0 0 0 1 1 3 3 3 4 5 5 6 7 8 8 7 6 5 5 4 2
6 6 6 6 5 3 3 4 5 5 4 3 1 0 0 0 1 1 1 0 0 0 0 0 0 0 1 2 3 4 4 4 4 4 5 7 9 8 7 8 8 6 4
7 7 7 7 8 7 6 6 7 7 4 2 1 1 0 0 0 0 0 0 0 0 0 0 0 0 1 2 3 4 5 5 4 4 4 5 7 7 7 9 10 10 8
9 9 9 9 10 11 10 9 8 7 5 2 1 1 0 0 0 1 1 1 1 0 0 0 0 0 1 2 2 4 6 6 5 4 3 4 4 5 5 7 9 10 10
10 10 10 11 11 11 10 9 7 6 5 4 3 2 1 1 1 2 4 4 3 1 1 0 0 0 1 2 3 4 6 6 4 3 3 3 3 3 3 4 6 7 7
9 10 11 11 11 9 8 8 6 5 4 4 3 3 2 2 2 4 6 6 4 3 2 1 1 1 1 2 3 3 4 3 2 1 2 2 3 3 3 3 3 3 3
7 8 9 10 8 7 7 7 6 4 3 3 3 4 3 3 4 4 5 5 4 4 3 3 2 2 2 2 2 2 1 1 0 0 1 1 1 2 2 2 1 1 1
7 7 7 7 6 6 6 7 6 4 3 3 4 4 4 3 4 4 4 4 4 4 3 2 2 1 1 1 0 0 0 1 1 1 0 0 0 1 1 1 0 0 0
8 7 6 6 6 6 6 8 7 5 3 3 3 4 3 3 3 3 3 2 2 1 1 1 1 0 0 0 0 0 0 1 2 2 1 0 0 0 1 1 0 0 0
7 7 7 7 7 7 8 9 8 6 4 4 4 4 3 3 3 3 3 2 1 0 0 0 0 0 0 0 0 0 0 1 1 2 1 0 0 0 1 1 0 0 0
6 6 7 7 8 9 9 9 9 7 5 5 5 5 4 4 3 3 3 3 2 1 0 0 0 0 0 0 0 0 0 0 0 1 1 1 0 0 1 1 0 0 0
7 7 7 8 9 10 9 8 8 6 4 4 5 6 6 5 4 4 3 3 2 1 0 0 0 0 0 0 0 0 0 0 0 0 0 1 0 0 0 0 0 0 0
7 8 9 9 9 8 6 5 4 4 3 3 4 5 6 6 5 4 3 2 1 1 0 0 0 0 0 0 0 0 0 0 0 0 0 0 0 0 0 0 0 0 0
7 8 9 8 8 6 3 1 1 2 2 2 3 4 5 5 5 3 3 2 2 2 1 0 0 0 0 0 0 0 0 0 0 0 0 0 0 0 0 0 0 0 0
7 7 8 7 7 5 2 0 0 1 1 1 1 2 3 4 3 1 1 2 3 2 1 1 0 0 0 0 0 0 0 0 0 0 0 0 0 0 0 0 0 0 0
6 7 7 6 6 5 3 1 0 0 0 0 0 1 2 2 1 0 0 1 2 2 2 2 1 0 0 0 0 0 0 0 0 0 0 0 0 0 0 0 0 0 0

GEFSMA_con_probscp_384.txt.gz
Probability
0 0 0 0 0 0 0 0 0 0 0 0 0 0 0 0 0 0 0 0 1 2 3 3 2 1 0 1 2 1 0 0 0 0 0 1 2 3 3 3 1 0 0
0 0 0 0 0 0 0 0 0 0 0 0 0 0 0 0 0 0 0 0 1 3 4 3 2 2 2 3 3 2 1 0 0 0 0 0 1 2 4 4 2 1 0
0 0 0 0 0 0 0 0 0 0 0 0 0 0 0 0 0 0 0 0 1 3 5 4 3 3 4 3 3 3 2 0 0 0 0 0 0 2 4 4 3 2 1
0 0 0 0 0 0 0 0 0 0 0 0 0 0 0 0 0 0 0 0 1 3 4 3 2 3 4 3 3 4 3 3 2 1 0 1 1 2 3 3 3 2 1
0 0 1 1 1 1 1 1 0 0 0 0 0 0 0 0 0 0 0 0 0 1 2 1 1 2 2 2 4 6 7 8 7 4 2 1 2 2 1 1 3 3 2
0 1 2 2 2 2 2 2 1 1 1 0 0 0 0 0 0 0 0 0 0 0 0 0 0 1 1 2 4 7 8 10 10 8 5 2 1 1 1 1 2 2 2
1 2 3 3 3 3 2 2 2 1 1 1 1 0 0 0 0 0 0 0 0 0 0 0 0 0 0 1 4 6 7 7 8 9 8 6 3 2 2 1 1 1 2
1 2 2 2 2 1 1 1 2 2 2 2 2 1 0 0 0 0 0 0 0 0 1 1 1 0 1 2 3 4 5 5 5 7 8 8 7 5 4 4 3 1 1
3 3 2 1 1 0 0 0 1 1 1 2 2 2 0 0 0 0 0 0 0 0 1 2 1 1 1 3 3 4 5 4 5 5 6 7 9 9 8 8 6 3 1
6 5 4 2 1 0 0 0 1 1 1 2 2 1 0 0 0 0 0 0 0 0 1 1 1 1 2 3 3 3 3 3 3 4 5 7 9 11 12 12 10 6 2
6 6 5 3 2 1 1 1 1 1 1 1 1 0 0 0 0 0 0 0 0 0 0 0 0 1 1 3 3 3 1 1 2 3 5 6 8 10 12 14 12 8 4
3 3 3 2 2 3 3 3 2 1 0 0 0 0 1 0 0 0 0 0 0 0 0 0 0 0 1 2 2 2 1 1 3 3 4 5 6 8 11 13 12 10 7
2 2 3 2 3 4 4 3 2 1 1 1 1 1 1 1 0 0 0 0 0 0 0 0 0 0 0 1 1 1 1 1 2 3 3 3 4 5 8 12 13 12 11
3 4 4 4 5 5 4 3 2 2 2 2 2 3 3 2 1 1 0 0 0 0 0 0 0 0 0 0 0 0 0 1 1 1 2 3 3 3 5 8 10 10 10
5 6 5 5 5 5 4 3 3 2 2 3 5 5 5 4 3 2 1 1 1 0 0 0 0 0 0 0 0 0 0 0 0 0 1 1 2 3 3 5 5 5 5
5 5 5 4 4 4 3 4 4 4 4 6 8 8 7 6 5 3 3 3 3 2 1 1 0 0 0 1 0 0 0 0 0 0 0 0 1 1 2 3 3 3 3
4 4 4 4 4 3 3 4 5 6 6 8 9 9 8 6 4 4 4 4 5 4 3 2 1 0 0 0 0 0 0 0 0 0 0 0 0 0 1 2 2 2 2
4 4 4 4 4 4 4 4 5 6 7 7 7 7 7 5 4 4 4 5 5 4 3 2 2 1 0 0 0 0 0 0 0 0 0 0 0 0 0 1 1 1 1
6 6 6 6 6 6 6 6 6 6 6 6 6 6 6 6 5 4 4 4 4 3 3 3 3 2 0 0 0 0 0 0 0 0 0 0 0 0 0 0 0 0 0
8 7 8 8 8 9 10 9 7 5 4 5 6 6 6 5 4 3 3 3 3 3 3 3 2 1 0 0 0 0 0 0 0 0 0 0 0 0 0 0 0 0 0
7 8 8 8 8 9 10 9 7 5 5 6 7 6 5 4 3 1 1 2 2 3 3 3 2 1 0 0 0 0 0 0 0 0 0 0 0 0 0 0 0 0 0
6 6 5 5 6 6 5 4 5 6 6 6 6 5 4 4 3 1 1 1 1 1 2 3 3 1 0 0 0 0 0 0 0 0 0 0 0 0 0 0 0 0 0
4 4 3 3 4 4 3 1 2 4 5 4 3 3 3 3 2 2 1 1 0 0 1 2 3 2 1 0 0 0 0 0 0 0 0 0 0 0 0 0 0 0 0
3 3 3 3 3 3 2 1 1 3 4 3 1 1 2 1 1 1 1 1 0 0 0 1 2 2 1 0 0 0 0 0 0 0 0 1 0 0 0 0 0 0 0
5 4 4 4 4 3 2 1 1 3 4 2 0 0 0 0 0 0 0 0 0 0 0 0 1 1 1 0 0 0 0 0 0 0 0 0 0 0 0 0 0 0 0
7 6 5 5 5 3 1 0 1 4 4 2 0 0 0 0 0 0 0 0 0 0 0 0 0 0 0 0 0 0 0 0 0 0 0 0 0 0 0 0 0 0 0